CW2285 Weather Reports


time (UTC)temp
F
wind
direction
speed
knots
gust
knots
rain 1hr
in
rain 24hr
in
rain mn
in
humidity
%
barometer
mb
20260507095003 73 291 5.2 8.7 0.00 0.00 0.00 45 1010.9
20260507094503 73 286 5.2 10.4 0.00 0.00 0.00 45 1010.9
20260507094003 73 268 7.0 11.3 0.00 0.00 0.00 44 1010.9
20260507093503 73 264 7.0 11.3 0.00 0.00 0.00 44 1010.9
20260507093004 72 292 6.1 10.4 0.00 0.00 0.00 45 1010.9
20260507092503 72 270 4.3 10.4 0.00 0.00 0.00 45 1010.9
20260507092003 72 279 5.2 11.3 0.00 0.00 0.00 44 1010.9
20260507091503 72 295 6.1 10.4 0.00 0.00 0.00 45 1011.0
20260507091003 72 280 4.3 8.7 0.00 0.00 0.00 45 1011.2
20260507090003 73 260 4.3 7.0 0.00 0.00 0.00 44 1011.3
20260507085503 73 260 3.5 8.7 0.00 0.00 0.00 43 1011.3
20260507085003 72 281 3.5 10.4 0.00 0.00 0.00 44 1011.3
20260507084504 72 258 3.5 7.0 0.00 0.00 0.00 45 1011.4
20260507083502 73 284 4.3 7.0 0.00 0.00 0.00 44 1011.4
20260507083003 73 283 2.6 8.7 0.00 0.00 0.00 43 1011.4
20260507082503 73 289 4.3 7.8 0.00 0.00 0.00 44 1011.4
20260507082003 74 285 5.2 10.4 0.00 0.00 0.00 43 1011.4
20260507081503 74 293 4.3 13.0 0.00 0.00 0.00 42 1011.4
20260507081003 73 313 4.3 8.7 0.00 0.00 0.00 44 1011.5
20260507080503 73 300 1.7 6.1 0.00 0.00 0.00 44 1011.8
20260507080003 73 290 2.6 7.0 0.00 0.00 0.00 44 1011.8
20260507075503 73 285 4.3 7.8 0.00 0.00 0.00 44 1011.8
20260507075003 73 280 4.3 8.7 0.00 0.00 0.00 44 1011.7
20260507074503 73 297 5.2 10.4 0.00 0.00 0.00 44 1011.7
20260507074003 73 302 4.3 7.8 0.00 0.00 0.00 44 1011.7
20260507073503 73 277 4.3 8.7 0.00 0.00 0.00 44 1011.8
20260507073003 73 292 2.6 7.8 0.00 0.00 0.00 44 1011.8
20260507072503 73 291 3.5 8.7 0.00 0.00 0.00 45 1011.8
20260507072003 73 308 1.7 7.0 0.00 0.00 0.00 45 1011.8
20260507071503 74 316 4.3 8.7 0.00 0.00 0.00 45 1011.8
20260507071003 74 298 5.2 8.7 0.00 0.00 0.00 44 1011.8
20260507070503 74 299 7.0 13.0 0.00 0.00 0.00 44 1011.8
20260507070004 74 279 7.8 13.9 0.00 0.00 0.00 44 1011.8
20260507065503 75 287 7.8 11.3 0.00 0.00 0.00 44 1011.9
20260507064503 75 289 7.0 15.6 0.00 0.00 0.00 44 1011.9
20260507064004 75 282 7.8 13.9 0.00 0.00 0.00 44 1011.9
20260507063003 75 287 3.5 10.4 0.00 0.00 0.00 44 1011.9
20260507062503 75 291 4.3 10.4 0.00 0.00 0.00 44 1011.9
20260507062002 75 302 3.5 7.8 0.00 0.00 0.00 44 1011.9
20260507061504 75 322 2.6 7.0 0.00 0.00 0.00 43 1011.8
20260507061003 75 308 2.6 7.0 0.00 0.00 0.00 43 1011.9
20260507060503 75 297 4.3 8.7 0.00 0.00 0.00 43 1011.9
20260507060003 75 299 4.3 8.7 0.00 0.00 0.00 43 1011.9
20260507055502 75 296 4.3 8.7 0.00 0.00 0.00 43 1011.9
20260507055003 76 304 4.3 8.7 0.00 0.00 0.00 42 1012.0
20260507054503 76 287 4.3 7.0 0.00 0.00 0.00 42 1012.0
20260507053003 76 295 4.3 10.4 0.00 0.00 0.00 41 1011.9
20260507052503 76 300 5.2 8.7 0.00 0.00 0.00 40 1011.9
20260507052003 77 288 3.5 7.8 0.00 0.00 0.00 40 1011.9
20260507051503 77 293 5.2 8.7 0.00 0.00 0.00 39 1011.9
20260507051003 77 279 3.5 5.2 0.00 0.00 0.00 39 1011.9
20260507050003 76 344 1.7 2.6 0.00 0.00 0.00 41 1011.9
20260507045504 76 1 2.6 4.3 0.00 0.00 0.00 40 1011.9
20260507045003 77 17 2.6 4.3 0.00 0.00 0.00 38 1011.9
20260507044503 78 356 1.7 4.3 0.00 0.00 0.00 36 1011.9
20260507044002 78 46 0.9 2.6 0.00 0.00 0.00 34 1011.9
20260507043503 79 90 0.9 2.6 0.00 0.00 0.00 32 1011.9
20260507042003 78 55 0.9 1.7 0.00 0.00 0.00 29 1011.8
20260507041503 77 46 2.6 2.6 0.00 0.00 0.00 29 1011.8
20260507041002 78 45 2.6 4.3 0.00 0.00 0.00 28 1011.7
20260507040504 78 32 2.6 4.3 0.00 0.00 0.00 28 1011.6
20260507040003 78 22 0.9 4.3 0.00 0.00 0.00 28 1011.5
20260507035003 79 63 1.7 4.3 0.00 0.00 0.00 28 1011.4
20260507034003 79 55 1.7 2.6 0.00 0.00 0.00 27 1011.3
20260507033503 79 53 1.7 4.3 0.00 0.00 0.00 27 1011.3
20260507033004 79 66 4.3 7.0 0.00 0.00 0.00 27 1011.3
20260507032503 80 71 4.3 6.1 0.00 0.00 0.00 27 1011.2
20260507032003 80 66 2.6 5.2 0.00 0.00 0.00 29 1011.2
20260507031503 81 82 5.2 7.8 0.00 0.00 0.00 26 1011.0
20260507031003 81 83 6.1 7.8 0.00 0.00 0.00 26 1010.9
20260507030503 81 86 2.6 5.2 0.00 0.00 0.00 26 1010.8
20260507030004 81 80 1.7 6.1 0.00 0.00 0.00 26 1010.8
20260507025503 82 81 1.7 5.2 0.00 0.00 0.00 26 1010.8
20260507025003 82 93 4.3 6.1 0.00 0.00 0.00 26 1010.7
20260507024503 82 98 1.7 4.3 0.00 0.00 0.00 25 1010.7
20260507024003 82 90 2.6 5.2 0.00 0.00 0.00 25 1010.5
20260507023503 83 95 5.2 7.0 0.00 0.00 0.00 25 1010.4
20260507023003 83 84 4.3 7.0 0.00 0.00 0.00 25 1010.3
20260507022503 83 81 4.3 7.0 0.00 0.00 0.00 25 1010.3
20260507022003 84 89 4.3 7.8 0.00 0.00 0.00 24 1010.3
20260507020502 85 116 6.1 8.7 0.00 0.00 0.00 24 1010.2
20260507020003 85 115 5.2 8.7 0.00 0.00 0.00 24 1010.1
20260507015503 85 102 6.1 8.7 0.00 0.00 0.00 23 1010.0
20260507015002 86 106 6.1 7.8 0.00 0.00 0.00 23 1009.9
20260507014002 87 113 5.2 8.7 0.00 0.00 0.00 23 1009.9
20260507013503 87 125 5.2 8.7 0.00 0.00 0.00 22 1009.8
20260507013004 87 117 5.2 10.4 0.00 0.00 0.00 22 1009.8
20260507012503 87 129 6.1 10.4 0.00 0.00 0.00 22 1009.8
20260507011502 88 119 5.2 10.4 0.00 0.00 0.00 21 1009.9
20260507011002 88 112 7.0 10.4 0.00 0.00 0.00 21 1010.0
20260507010504 89 111 4.3 7.0 0.00 0.00 0.00 21 1010.0
20260507010003 88 113 6.1 8.7 0.00 0.00 0.00 21 1010.0
20260507005503 89 122 4.3 10.4 0.00 0.00 0.00 21 1009.9
20260507005003 89 99 5.2 8.7 0.00 0.00 0.00 20 1009.9
20260507004503 89 95 6.1 10.4 0.00 0.00 0.00 21 1009.9
20260507004003 89 77 5.2 10.4 0.00 0.00 0.00 21 1009.9
20260507003503 89 118 6.1 7.8 0.00 0.00 0.00 20 1009.9
20260507003003 90 100 5.2 10.4 0.00 0.00 0.00 21 1009.8
20260507002003 90 86 4.3 7.0 0.00 0.00 0.00 21 1009.8
20260507001503 90 94 2.6 6.1 0.00 0.00 0.00 20 1009.8
20260507001003 89 75 5.2 10.4 0.00 0.00 0.00 20 1009.8
20260507000503 89 140 4.3 10.4 0.00 0.00 0.00 21 1009.8
20260507000003 88 131 3.5 7.8 0.00 0.00 0.00 21 1009.8
20260506235503 88 165 1.7 4.3 0.00 0.00 0.00 20 1009.8
20260506235003 89 162 2.6 7.8 0.00 0.00 0.00 20 1009.8
20260506234503 89 116 4.3 7.8 0.00 0.00 0.00 20 1009.8
20260506234003 89 99 5.2 7.8 0.00 0.00 0.00 21 1009.8
20260506233502 90 147 2.6 7.0 0.00 0.00 0.00 20 1009.8
20260506233003 90 102 1.7 7.0 0.00 0.00 0.00 20 1009.8
20260506232003 89 159 2.6 7.0 0.00 0.00 0.00 20 1009.9
20260506231503 89 107 4.3 7.8 0.00 0.00 0.00 20 1009.9
20260506231003 88 6 2.6 8.7 0.00 0.00 0.00 21 1009.9
20260506230503 88 223 1.7 4.3 0.00 0.00 0.00 20 1010.0
20260506225504 89 111 3.5 7.0 0.00 0.00 0.00 20 1010.2
20260506225003 89 58 4.3 7.8 0.00 0.00 0.00 20 1010.3
20260506224503 89 103 4.3 10.4 0.00 0.00 0.00 20 1010.3
20260506224003 88 112 6.1 10.4 0.00 0.00 0.00 21 1010.3
20260506223503 89 112 2.6 7.8 0.00 0.00 0.00 21 1010.3
20260506223003 89 76 2.6 7.0 0.00 0.00 0.00 20 1010.4
20260506222004 89 100 4.3 7.0 0.00 0.00 0.00 20 1010.5
20260506221504 88 158 3.5 7.0 0.00 0.00 0.00 20 1010.6
20260506221003 88 18 1.7 5.2 0.00 0.00 0.00 21 1010.8
20260506220502 86 72 1.7 6.1 0.00 0.00 0.00 22 1010.9
20260506220004 87 156 1.7 7.8 0.00 0.00 0.00 21 1010.9
20260506215503 87 150 5.2 8.7 0.00 0.00 0.00 19 1011.0
20260506215003 87 100 5.2 7.8 0.00 0.00 0.00 20 1011.1
20260506214503 86 163 0.9 6.1 0.00 0.00 0.00 20 1011.2
20260506214002 87 133 5.2 11.3 0.00 0.00 0.00 20 1011.3
20260506213503 87 40 1.7 6.1 0.00 0.00 0.00 19 1011.4
20260506213003 88 38 2.6 5.2 0.00 0.00 0.00 20 1011.4
20260506212503 87 40 2.6 8.7 0.00 0.00 0.00 21 1011.4
20260506211503 87 55 1.7 4.3 0.00 0.00 0.00 22 1011.5
20260506211003 86 94 3.5 7.8 0.00 0.00 0.00 21 1011.7
20260506210503 85 134 2.6 4.3 0.00 0.00 0.00 24 1011.8
20260506210003 85 63 1.7 6.1 0.00 0.00 0.00 23 1011.9
20260506205504 85 84 5.2 7.8 0.00 0.00 0.00 22 1011.9
20260506205003 86 81 4.3 7.8 0.00 0.00 0.00 23 1011.9
20260506204503 86 127 2.6 7.8 0.00 0.00 0.00 22 1012.0
20260506204003 86 82 4.3 7.8 0.00 0.00 0.00 22 1012.0
20260506203004 85 112 5.2 7.0 0.00 0.00 0.00 25 1012.2
20260506202503 84 66 2.6 7.0 0.00 0.00 0.00 23 1012.3
20260506202003 85 107 2.6 7.0 0.00 0.00 0.00 23 1012.4
20260506201502 83 277 0.9 4.3 0.00 0.00 0.00 26 1012.4
20260506201003 84 205 2.6 5.2 0.00 0.00 0.00 25 1012.5
20260506200503 83 141 2.6 6.1 0.00 0.00 0.00 25 1012.5
20260506200003 84 122 2.6 7.0 0.00 0.00 0.00 25 1012.5
20260506195503 83 164 2.6 7.0 0.00 0.00 0.00 25 1012.6
20260506195004 84 127 1.7 6.1 0.00 0.00 0.00 24 1012.8
20260506194503 83 21 2.6 4.3 0.00 0.00 0.00 26 1012.9
20260506194003 83 109 1.7 2.6 0.00 0.00 0.00 25 1013.0
20260506193503 83 119 1.7 5.2 0.00 0.00 0.00 25 1013.0
20260506193004 83 94 2.6 6.1 0.00 0.00 0.00 25 1013.0
20260506192503 82 47 1.7 4.3 0.00 0.00 0.00 27 1013.1
20260506192003 82 117 2.6 6.1 0.00 0.00 0.00 26 1013.2
20260506191503 82 164 2.6 6.1 0.00 0.00 0.00 27 1013.2
20260506191003 81 116 2.6 6.1 0.00 0.00 0.00 26 1013.2
20260506190503 80 286 1.7 2.6 0.00 0.00 0.00 30 1013.4
20260506190004 80 279 0.9 5.2 0.00 0.00 0.00 27 1013.5
20260506185003 80 230 1.7 2.6 0.00 0.00 0.00 28 1013.5
20260506184503 80 166 1.7 4.3 0.00 0.00 0.00 28 1013.5
20260506184003 80 208 4.3 6.1 0.00 0.00 0.00 28 1013.6
20260506183503 79 73 1.7 4.3 0.00 0.00 0.00 28 1013.8
20260506182503 80 267 1.7 2.6 0.00 0.00 0.00 29 1013.9
20260506182003 79 101 0.9 4.3 0.00 0.00 0.00 30 1014.0
20260506181003 79 292 0.9 2.6 0.00 0.00 0.00 32 1014.0
20260506180503 78 325 0.9 4.3 0.00 0.00 0.00 29 1014.0
20260506180005 78 287 1.7 4.3 0.00 0.00 0.00 32 1014.0
20260506175003 78 221 4.3 7.0 0.00 0.00 0.00 29 1014.0
20260506174503 77 269 1.7 5.2 0.00 0.00 0.00 32 1014.0
20260506174004 77 260 2.6 7.8 0.00 0.00 0.00 30 1014.0
20260506173503 77 224 2.6 7.8 0.00 0.00 0.00 32 1014.0
20260506173003 77 268 3.5 7.0 0.00 0.00 0.00 31 1014.0
20260506172003 77 273 1.7 5.2 0.00 0.00 0.00 33 1014.0
20260506171503 76 289 5.2 8.7 0.00 0.00 0.00 34 1014.0
20260506171003 75 273 0.9 2.6 0.00 0.00 0.00 34 1014.0
20260506170502 76 297 0.9 4.3 0.00 0.00 0.00 35 1014.0
20260506170003 74 294 1.7 2.6 0.00 0.00 0.00 35 1014.0
20260506165503 74 268 0.0 4.3 0.00 0.00 0.00 35 1014.0
20260506165003 74 281 2.6 4.3 0.00 0.00 0.00 35 1014.0
20260506164504 73 247 1.7 4.3 0.00 0.00 0.00 36 1014.0
20260506164004 73 314 0.9 6.1 0.00 0.00 0.00 36 1014.1
20260506163503 73 349 0.9 5.2 0.00 0.00 0.00 37 1014.0
20260506163003 73 263 1.7 6.1 0.00 0.00 0.00 37 1014.0
20260506162503 72 297 2.6 7.8 0.00 0.00 0.00 37 1014.0
20260506161503 72 244 3.5 7.8 0.00 0.00 0.00 38 1014.0
20260506161003 71 286 2.6 7.8 0.00 0.00 0.00 40 1014.0
20260506160503 71 269 4.3 10.4 0.00 0.00 0.00 38 1014.0
20260506160003 71 291 4.3 10.4 0.00 0.00 0.00 38 1013.9
20260506155503 70 296 5.2 10.4 0.00 0.00 0.00 39 1013.8
20260506155003 70 303 6.1 10.4 0.00 0.00 0.00 39 1013.8
20260506154504 70 292 6.1 10.4 0.00 0.00 0.00 40 1013.8
20260506154003 69 279 6.1 11.3 0.00 0.00 0.00 41 1013.8
20260506153503 69 285 5.2 10.4 0.00 0.00 0.00 41 1013.9
20260506153004 68 279 6.1 12.2 0.00 0.00 0.00 42 1013.8
20260506152503 68 268 7.0 13.9 0.00 0.00 0.00 42 1013.8
20260506152003 67 299 8.7 15.6 0.00 0.00 0.00 42 1013.7
20260506151503 67 281 6.1 13.0 0.00 0.00 0.00 43 1013.8
20260506151003 67 283 8.7 15.6 0.00 0.00 0.00 43 1013.7
20260506150003 66 274 7.0 17.4 0.00 0.00 0.00 45 1013.7
20260506145503 66 279 7.8 13.0 0.00 0.00 0.00 46 1013.7
20260506145004 65 296 7.8 13.9 0.00 0.00 0.00 46 1013.8
20260506144504 65 300 6.1 14.8 0.00 0.00 0.00 46 1013.7
20260506144003 65 273 6.1 11.3 0.00 0.00 0.00 47 1013.7
20260506143503 64 282 8.7 15.6 0.00 0.00 0.00 47 1013.6
20260506143003 64 289 7.8 14.8 0.00 0.00 0.00 48 1013.6
20260506142503 64 276 7.8 15.6 0.00 0.00 0.00 48 1013.6
20260506142003 63 276 7.0 17.4 0.00 0.00 0.00 49 1013.5
20260506141503 63 290 9.6 17.4 0.00 0.00 0.00 48 1013.5
20260506141003 63 294 7.8 15.6 0.00 0.00 0.00 48 1013.5
20260506140503 63 284 8.7 18.2 0.00 0.00 0.00 49 1013.5
20260506135003 62 285 9.6 17.4 0.00 0.00 0.00 50 1013.2
20260506134503 62 284 7.8 17.4 0.00 0.00 0.00 50 1013.1
20260506134003 62 300 9.6 18.2 0.00 0.00 0.00 50 1013.0
20260506133503 62 287 7.8 17.4 0.00 0.00 0.00 51 1013.0
20260506133004 62 267 9.6 19.1 0.00 0.00 0.00 51 1013.0
20260506132503 62 277 8.7 17.4 0.00 0.00 0.00 51 1013.0
20260506132004 62 271 7.8 18.2 0.00 0.00 0.00 51 1013.0
20260506131503 62 286 9.6 17.4 0.00 0.00 0.00 52 1012.9
20260506131004 62 291 7.8 14.8 0.00 0.00 0.00 52 1012.7
20260506130503 62 292 8.7 17.4 0.00 0.00 0.00 52 1012.6
20260506130004 62 282 10.4 19.1 0.00 0.00 0.00 51 1012.5
20260506125503 62 289 10.4 20.0 0.00 0.00 0.00 51 1012.5
20260506125003 62 295 8.7 18.2 0.00 0.00 0.00 52 1012.5
20260506124004 62 291 8.7 18.2 0.00 0.00 0.00 52 1012.5
20260506123503 62 290 8.7 14.8 0.00 0.00 0.00 52 1012.4
20260506123003 62 289 9.6 15.6 0.00 0.00 0.00 53 1012.4
20260506122503 62 291 8.7 17.4 0.00 0.00 0.00 53 1012.4
20260506122003 62 291 8.7 14.8 0.00 0.00 0.00 53 1012.4
20260506121504 62 297 7.8 18.2 0.00 0.00 0.00 53 1012.4
20260506120504 62 301 10.4 15.6 0.00 0.00 0.00 53 1012.3
20260506120003 62 292 9.6 19.1 0.00 0.00 0.00 53 1012.1
20260506115503 62 287 12.2 19.1 0.00 0.00 0.00 53 1012.1
20260506115003 62 279 11.3 18.2 0.00 0.00 0.00 53 1012.1
20260506114503 62 288 11.3 19.1 0.00 0.00 0.00 53 1012.1
20260506114004 62 289 11.3 19.1 0.00 0.00 0.00 53 1012.0
20260506113504 62 283 11.3 19.1 0.00 0.00 0.00 53 1012.0
20260506113003 62 295 10.4 19.1 0.00 0.00 0.00 53 1012.0
20260506112503 62 287 11.3 20.0 0.00 0.00 0.00 53 1012.0
20260506112003 62 285 9.6 20.0 0.00 0.00 0.00 53 1012.0
20260506111502 62 274 10.4 20.0 0.00 0.00 0.00 53 1012.0
20260506110504 62 290 12.2 22.6 0.00 0.00 0.00 53 1011.9
20260506110004 62 296 10.4 17.4 0.00 0.00 0.00 53 1012.0
20260506105503 62 292 8.7 22.6 0.00 0.00 0.00 53 1012.0
20260506105003 62 288 7.8 22.6 0.00 0.00 0.00 53 1012.0
20260506104503 62 303 8.7 15.6 0.00 0.00 0.00 53 1012.0
20260506104003 62 290 9.6 20.0 0.00 0.00 0.00 53 1012.0
20260506103503 62 298 8.7 18.2 0.00 0.00 0.00 53 1012.0
20260506102503 62 297 6.1 17.4 0.00 0.00 0.00 54 1012.0
20260506102004 62 295 7.0 17.4 0.00 0.00 0.00 53 1012.0
20260506101503 62 295 8.7 18.2 0.00 0.00 0.00 53 1012.0
20260506101003 62 292 9.6 17.4 0.00 0.00 0.00 54 1011.9